Regional Weather Roundup
Issued by NWS

Home | Current Version | Previous Version | Graphics & Text | Print | Product List | Glossary Off
Versions: 1 2 3 4 5 6 7 8 9 10 11 12 13 14 15 16 17 18 19 20 21 22 23 24 25 26 27 28 29 30 31 32 33 34 35 36 37 38 39 40 41 42 43 44 45 46 47 48 49 50

000
ASUS43 KTOP 142108
RWRKS

WEATHER ROUNDUP FOR KANSAS
NATIONAL WEATHER SERVICE GOODLAND KS
300 PM CST SUN FEB 14 2016

NOTE:  "FAIR" INDICATES FEW OR NO CLOUDS BELOW 12,000 FEET WITH NO
SIGNIFICANT WEATHER AND/OR OBSTRUCTIONS TO VISIBILITY.

KSZ001>006-013>018-027>032-041>047-142200-
NORTHWEST KANSAS

CITY           SKY/WX    TMP DP  RH WIND       PRES   REMARKS
GOODLAND       CLOUDY    47  24  40 SW10      29.87F
HAYS           CLOUDY    54  25  32 W9        29.88S
HILL CITY      MOSUNNY   54  26  34 SW10      29.88F
RUSSELL        CLOUDY    56  23  27 NW9       29.85F
$$

KSZ061>065-074>080-084>089-142200-
SOUTHWEST KANSAS

CITY           SKY/WX    TMP DP  RH WIND       PRES   REMARKS
DODGE CITY     CLOUDY    51  22  31 SW8       29.90F
ELKHART          N/A     53  21  28 S6          N/A
GARDEN CITY    CLOUDY    51  21  30 VRB5      29.89F
GREAT BEND     CLOUDY    54  23  30 NW3       29.88S
LIBERAL        CLOUDY    54  23  30 N5        29.92S
PRATT          CLOUDY    51  22  32 NW5       29.89S
$$

KSZ066>073-081>083-090>101-142200-
SOUTHEAST KANSAS

CITY           SKY/WX    TMP DP  RH WIND       PRES   REMARKS
CHANUTE        CLOUDY    54  29  38 W10       29.87F
COFFEYVILLE    SUNNY     57  30  35 W5        29.89F
HUTCHINSON     CLOUDY    55  27  34 SW7       29.88F
MEDICINE LODGE   N/A     55  27  34 W6        29.89S
NEWTON         CLOUDY    52  27  37 W7        29.89S
PARSONS        CLOUDY    56  30  37 W7        29.89F
WICHITA INTL   CLOUDY    54  27  35 CALM      29.88F
WICHITA JABRA  CLOUDY    51  26  37 VRB5      29.87F
WICHITA MCCONL CLOUDY    52  28  39 S6        29.88F
WINFIELD       SUNNY     57  30  35 VRB7      29.88F
$$

KSZ007>012-019>026-033>040-048>060-102>105-142200-
NORTHEAST KANSAS

CITY           SKY/WX    TMP DP  RH WIND       PRES   REMARKS
CONCORDIA      SUNNY     54  27  35 W13       29.85S
EMPORIA        SUNNY     55  30  38 NW8       29.84F
LAWRENCE       SUNNY     51  28  41 S6        29.85F
MANHATTAN      SUNNY     56  28  34 NW9G18    29.85F
MARYSVILLE     SUNNY     52  32  46 NW15G21   29.83S
OLATHE IND     SUNNY     48  29  47 SW8       29.86F
OLATHE EXE     SUNNY     48  29  47 SW10      29.85F
SALINA         CLOUDY    58  23  26 N13       29.87R
TOPEKA BILLARD SUNNY     53  29  39 W7        29.85F
TOPEKA FORBES  SUNNY     54  31  41 NW8       29.84F
$$



USA.gov is the U.S. government's official web portal to all federal, state and local government web resources and services.